Flag for U.S.A. Weather past 2 weeks in St. Paul, Minnesota, U.S.A.

Now
62 °F

Fog.


Feels Like: 62 °F
Forecast: 63 / 83 °F
Wind: 5 mph from Southeast

Location: St. Paul Downtown Holman Field

Current Time: Aug 30, 2015 at 4:02:50 AM

Latest Report: Aug 30, 2015 at 2:53 AM


Visibility: 4 mi

Pressure: 29.99 "Hg

Humidity: 100%

Dew point: 62 °F

Location of St. PaulLocation

Historic Weather in St. Paul — Graph

°F

St. Paul temperature yesterday

Maximum temperature yesterday: 73 °F (at 4:53 PM)
Minimum temperature yesterday: 56 °F (at 5:53 AM)
Average temperature yesterday: 64 °F

Past Weeks' High & Low Weather Summary

 TemperatureHumidityPressure
High90 °F (Aug 15, 1:53 PM)100% (Aug 19, 12:53 AM)30.20 "Hg (Aug 19, 12:53 AM)
Low51 °F (Aug 26, 6:53 AM)38% (Aug 20, 3:53 PM)29.46 "Hg (Aug 19, 4:53 AM)
Average66 °F75%29.92 "Hg
* Reported Aug 15 2:53 AM — Aug 30 2:53 AM, St. Paul, Weather by CustomWeather, © 2015

Note: Actual official high and low records may vary slightly from our data, if they occured in-between our weather recording intervals... More about our weather records

Advertising

St. Paul weather history for previous 24 hours

 ConditionsComfort  
Time TempWeatherWind HumidityBarometerVisibility
2:53 AM
Sun, Aug 30
62 °FFog.5 mph100%29.99 "Hg4 mi
1:53 AM63 °FFog.6 mph97%29.99 "Hg6 mi
12:53 AM63 °FFog.7 mph100%30.00 "Hg6 mi
11:53 PM
Sat, Aug 29
64 °FClear.5 mph97%30.01 "Hg10 mi
10:53 PM65 °FClear.6 mph94%30.01 "Hg9 mi
9:53 PM65 °FClear.No wind94%30.01 "Hg10 mi
8:53 PM67 °FSunny.5 mph90%30.01 "Hg10 mi
7:53 PM69 °FSunny.5 mph84%30.00 "Hg10 mi
6:53 PM71 °FSunny.5 mph78%30.01 "Hg10 mi
5:53 PM73 °FSunny.3 mph71%30.01 "Hg10 mi
4:53 PM73 °FSunny.5 mph71%30.02 "Hg10 mi
3:53 PM71 °FSunny.5 mph73%30.03 "Hg10 mi
2:53 PM70 °FSunny.7 mph73%30.04 "Hg10 mi
1:53 PM69 °FScattered clouds.6 mph76%30.05 "Hg10 mi
12:53 PM67 °FSunny.5 mph79%30.06 "Hg10 mi
11:53 AM64 °FLow clouds.3 mph84%30.07 "Hg7 mi
10:53 AM60 °FLow clouds.3 mph93%30.07 "Hg7 mi
9:53 AM59 °FFog.No wind93%30.07 "Hg5 mi
8:53 AM57 °FFog.6 mph96%30.06 "Hg5 mi
7:53 AM57 °FLow clouds.3 mph93%30.07 "Hg8 mi
6:53 AM56 °FClear.6 mph93%30.05 "Hg9 mi
5:53 AM56 °FClear.No wind93%30.04 "Hg10 mi
4:53 AM57 °FClear.5 mph93%30.03 "Hg10 mi
Weather by CustomWeather, © 2015

See weather overviewHow to use our weather pages